Beaufort, NC

5:42 PM EST on January 21, 2018 (GMT -0500)
Smith

Weather History for KMRH - June, 2014

Change the Weather History Date:

Tuesday, June 17, 2014

  Actual Average Record
Temperature  
Mean Temperature 80 °F -  
Max Temperature 84 °F 83 °F 94 °F (1981)
Min Temperature 77 °F 69 °F 59 °F (1959)
Cooling Degree Days 16    
Growing Degree Days 30 (Base 50)    
Moisture  
Dew Point 71 °F    
Average Humidity 74    
Maximum Humidity 84    
Minimum Humidity 65    
Precipitation  
Precipitation 0.00 in - - ()
Sea Level Pressure  
Sea Level Pressure 30.15 in    
Wind  
Wind Speed 13 mph (SW)    
Max Wind Speed 21 mph    
Max Gust Speed 22 mph    
Visibility 10 miles    
Events      
Averages and records for this station are not official NWS values.
T = Trace of Precipitation, MM = Missing Value Source: NWS Daily Summary

Daily Weather History Graph

Daily Weather History Graph

Search for Another Location

Airport or City:

Trip Planner

Search our weather history database for the weather conditions in past years. The results will help you decide how hot, cold, wet, or windy it might be!

Date:

Astronomy

Jun. 17, 2014 Rise Set
Actual Time 5:53 AM EDT 8:22 PM EDT
Civil Twilight 5:23 AM EDT 8:51 PM EDT
Nautical Twilight 4:47 AM EDT 9:28 PM EDT
Astronomical Twilight 4:06 AM EDT 10:08 PM EDT
Moon No Moon Rise 10:54 AM EDT (6/17)
Length of Visible Light 15h 28m
Length of Day
14h 28m
Waning Gibbous, 73% of the Moon is Illuminated
Jun 17
Waning Gibbous
Jun 19
Last Quarter
Jun 27
New
Jul 5
First Quarter
Jul 12
Full

Hourly Weather History & Observations

Time (EDT) Temp. Heat Index Dew Point Humidity Pressure Visibility Wind Dir Wind Speed Gust Speed Precip Events Conditions
12:58 AM 78.1 °F - 70.0 °F 76% 30.15 in 10.0 mi SW 12.7 mph - N/A   Clear
2:58 AM 78.1 °F - 70.0 °F 76% 30.14 in 10.0 mi WSW 12.7 mph - N/A   Clear
3:58 AM 78.1 °F - 70.0 °F 76% 30.13 in 10.0 mi WSW 10.4 mph - N/A   Clear
4:58 AM 78.1 °F - 71.1 °F 79% 30.14 in 10.0 mi WSW 8.1 mph - N/A   Clear
5:58 AM 77.0 °F - 72.0 °F 84% 30.16 in 10.0 mi SW 8.1 mph - N/A   Clear
6:58 AM 78.1 °F - 71.1 °F 79% 30.17 in 9.0 mi WSW 9.2 mph - N/A   Partly Cloudy
7:58 AM 79.0 °F - 72.0 °F 79% 30.17 in 9.0 mi WSW 12.7 mph - N/A   Clear
8:58 AM 81.0 °F 85.2 °F 72.0 °F 74% 30.18 in 9.0 mi West 10.4 mph - N/A   Clear
9:58 AM 82.9 °F 87.5 °F 71.1 °F 67% 30.18 in 10.0 mi WSW 8.1 mph - N/A   Clear
10:58 AM 84.0 °F 91.2 °F 73.9 °F 72% 30.18 in 9.0 mi SW 11.5 mph - N/A   Clear
11:58 AM 82.9 °F 88.8 °F 73.0 °F 72% 30.17 in 9.0 mi SSW 15.0 mph - N/A   Clear
12:58 PM 84.0 °F 91.2 °F 73.9 °F 72% 30.17 in 10.0 mi SSW 17.3 mph - N/A   Clear
2:58 PM 84.0 °F 91.9 °F 75.0 °F 74% 30.14 in 9.0 mi SSW 20.7 mph - N/A   Clear
3:58 PM 82.9 °F 89.4 °F 73.9 °F 74% 30.13 in 10.0 mi SW 19.6 mph - N/A   Clear
4:58 PM 84.0 °F 90.2 °F 73.0 °F 69% 30.12 in 10.0 mi SSW 17.3 mph - N/A   Clear
5:58 PM 82.0 °F 85.5 °F 69.1 °F 65% 30.12 in 10.0 mi SSW 19.6 mph - N/A   Clear
6:58 PM 81.0 °F 84.9 °F 71.1 °F 72% 30.12 in 10.0 mi SW 18.4 mph - N/A   Clear
7:58 PM 80.1 °F 82.9 °F 69.1 °F 69% 30.14 in 10.0 mi SSW 16.1 mph - N/A   Clear
8:58 PM 79.0 °F - 70.0 °F 74% 30.14 in 10.0 mi SW 15.0 mph - N/A   Clear
9:58 PM 79.0 °F - 69.1 °F 72% 30.15 in 10.0 mi SW 17.3 mph 21.9 mph N/A   Clear
10:58 PM 79.0 °F - 70.0 °F 74% 30.13 in 10.0 mi SW 16.1 mph - N/A   Clear
11:58 PM 79.0 °F - 71.1 °F 77% 30.12 in 10.0 mi SW 15.0 mph - N/A   Clear